OneWeb SL0095

operational
NORAD ID: 45436 Int'l Des: 2020-020 Owner: ONEWEB Country: UK Constellation: oneweb
LEOCIRCULARPOLARONEWEB_TYPE

Über OneWeb SL0095

Beschreibung wird geladen...

Live-Position

3D-Globus wird geladen...

Nächste Überflüge

Höhenverlauf

Altitude vs Time

uPlot chart will show altitude changes over time

Zweizeiliger Elementsatz

1 45436U 20020N 25304.61425541 -.00000246 00000-0 -73031-3 0 9999
2 45436 87.8841 66.5823 0001642 72.8873 287.2434 13.11420588272710
Epoch: 31. Okt. 2025 • Age: 10 hours

Aktueller Status

Höhe 1229.6 km
Geschwindigkeit 7.25 km/s
Subsatellitenpunkt 75.29°N, 168.54°W
Startdatum 21. März 2020
Alter 5.6 years
Typ internet

Technische Details

Klassifizierung Payload
Masse 148.00 kg
Trockenmasse 140.00 kg
Gesamtmasse 148.00 kg
Länge 1.30 m
Durchmesser 1.00 m
Spannweite 5.00 m
Form Trapezoid+2 pan
Hersteller ONEWUS
Bus-Typ ARROW
Phasenstatus In Orbit
Besitzer/Staat ONEWEB/UK

Große Konstellationen

Loading constellations...